Location: Newark
(42.7133°N, 87.7910°W)
Time: 14:02:37
(UTC+00:00)

Tiros 1 - Pass Details

Date: 29 September 2019
Orbit: 630 x 664 km, 48.4° (Epoch: 15 October)

Event Time Altitude Azimuth Distance (km) Brightness Sun altitude
Rises 14:22:44 0° 209° (SSW) 2,981 10.6 26.5°
Reaches altitude 10° 14:25:19 10° 199° (SSW) 2,070 10.0 26.9°
Maximum altitude 14:29:27 30° 139° (SE) 1,189 10.6 27.5°
Drops below altitude 10° 14:33:35 10° 79° (E) 2,067 10.5 28.1°
Sets 14:36:08 0° 69° (ENE) 2,976 11.0 28.5°
